Home   Weather   Georgetown   Past weeks
Flag for Guyana

Past Weather in Georgetown, Guyana — Yesterday and Last 2 Weeks

Now
68 °F

Passing clouds.


Feels Like: 68 °F
Forecast: 74 / 84 °F
Wind: 2 mph from North

Location: Georgetown/Cheddi Jagan International Airport

Current Time: Dec 15, 2018 at 5:18:07 am

Latest Report: Dec 15, 2018 at 4:00 am


Visibility: N/A

Pressure: 29.98 "Hg

Humidity: 100%

Dew Point: 68 °F

Location of GeorgetownLocation

Past Weather in Georgetown — Graph

°F

Georgetown Temperature Yesterday

Maximum temperature yesterday: 82 °F (at 11:37 am)
Minimum temperature yesterday: 72 °F (at 3:00 am)
Average temperature yesterday: 76 °F

High & Low Weather Summary for the Past Weeks

 TemperatureHumidityPressure
High90 °F (Dec 6, 2:00 pm)100% (Nov 30, 5:00 am)30.04 "Hg (Nov 30, 5:00 am)
Low68 °F (Dec 2, 4:00 am)49% (Dec 3, 2:00 pm)29.80 "Hg (Dec 4, 2:00 pm)
Average78 °F86%29.93 "Hg
* Reported Nov 30 4:00 am — Dec 15 4:00 am, Georgetown. Weather by CustomWeather, © 2018

Note: Actual official high and low records may vary slightly from our data, if they occured in-between our weather recording intervals... More about our weather records

Advertising

Georgetown Weather History for the Previous 24 Hours

Scroll right to see more
 ConditionsComfort  
Time TempWeatherWind HumidityBarometerVisibility
4:00 am
Sat, Dec 15
68 °FPassing clouds.2 mph100%29.98 "HgN/A
3:00 am70 °FClear.5 mph100%29.98 "Hg10 mi
2:00 am70 °FPassing clouds.5 mph100%29.98 "HgN/A
12:00 am72 °FClear.5 mph94%30.01 "Hg10 mi
11:00 pm
Fri, Dec 14
72 °FClear.5 mph94%30.01 "Hg10 mi
10:00 pm73 °FPassing clouds.5 mph94%30.01 "HgN/A
9:00 pm73 °FClear.5 mph94%30.01 "Hg10 mi
8:00 pm75 °FClear.2 mph89%29.98 "Hg10 mi
7:00 pm75 °FClear.7 mph94%29.98 "Hg10 mi
6:00 pm79 °FPassing clouds.9 mph89%29.95 "HgN/A
5:00 pm81 °FPassing clouds.12 mph79%29.95 "HgN/A
4:00 pm82 °FScattered clouds.18 mph79%29.95 "HgN/A
3:00 pm82 °FPartly sunny.18 mph74%29.95 "HgN/A
2:00 pm82 °FSprinkles. Partly sunny.21 mph79%29.95 "Hg6 mi
1:00 pm77 °FSprinkles. Broken clouds.21 mph94%29.98 "Hg6 mi
12:00 pm79 °FBroken clouds.12 mph89%30.01 "HgN/A
11:37 am82 °FSprinkles. Broken clouds.21 mph74%30.01 "Hg6 mi
9:00 am79 °FPartly sunny.9 mph89%30.01 "HgN/A
8:00 am77 °FPartly sunny.5 mph94%30.01 "HgN/A
7:00 am73 °FPassing clouds.2 mph100%29.98 "HgN/A
6:15 am72 °FPassing clouds.5 mph100%29.98 "Hg5 mi
6:00 am72 °FFog.2 mph100%29.98 "Hg1 mi
5:00 am72 °FPassing clouds.5 mph94%29.95 "Hg6 mi
Weather by CustomWeather, © 2018

See weather overview